User: anonymous   Login
Location: Caltech
(34.1382°N, 118.1253°W)
Time: 23:19:06
(UTC-08:00)
Language:

Cosmos 1697 Rocket - Orbit

View from above orbital plane
View from above orbital plane
View from above satellite
View from above satellite

Ground track
Ground track

The orbit data is extracted from the following two-line orbital elements,

1 16182U 85097B   17350.21343348 -.00000234  00000-0 -94098-4 0  9996
2 16182  71.0025 345.0852 0006995 175.6831 259.8962 14.16223627661998
Epoch (UTC): 16 December 2017 05:07:20
Eccentricity: 0.0006995
inclination: 71.0025°
perigee height: 833 km
apogee height: 843 km
right ascension of ascending node: 345.0852°
argument of perigee: 175.6831°
revolutions per day: 14.16223627
mean anomaly at epoch: 259.8962°
orbit number at epoch: 66199

The dashed part of the orbit path shows where the satellite is in the earth's shadow,  

DLR